Simultaneous Nadir Overpasses (SNOs) Predictions

Prediction of SNOs between GOES-16 and METOP-C Satellite Orbit:

Table of predicted SNOs for the next 14.0 days since TLE Epoch: 6/30/2020
Index Date Time (GOES-16) GOES-16 Lat,Lon METOP-C Lat,Lon Distance(km) Time Diff (sec)
1 06/30/2020 02:44:35 0.00, -75.19 0.00, -77.93 304.56 80
2 07/01/2020 02:21:05 -0.01, -75.19 0.52, -72.80 272.37 80
3 07/02/2020 14:39:57 0.02, -75.21 0.50, -77.36 245.22 80
4 07/03/2020 14:21:58 0.02, -75.22 -0.61, -72.37 324.34 80
5 07/05/2020 02:40:57 -0.01, -75.21 -0.43, -76.96 199.77 80
6 07/06/2020 02:17:39 -0.01, -75.22 0.74, -71.98 370.13 80
7 07/07/2020 14:39:11 0.00, -75.25 0.28, -76.54 146.80 80
8 07/08/2020 14:15:52 -0.01, -75.26 -0.83, -71.54 423.56 80
9 07/10/2020 02:37:32 0.02, -75.27 -0.15, -76.15 99.01 80
10 07/11/2020 02:14:12 0.02, -75.29 0.96, -71.15 471.90 80
11 07/12/2020 14:33:05 -0.02, -75.33 0.07, -75.72 43.55 80
